Lexington Weather

Lexington, Massachusetts, USA

32°F
11/15/2019 3:31am 
  • Lexington Conditions: Clear
  • Temperature: 32.0°F / 0.0°CColder 0.2°F than last hour.
  • Dew Point: 28.9°FDecreased 0.9°Fsince last hour.
  • Relative Humidity: 88%Decreased 3.0% since last hour.
  • Wind: Wind from SW SW 1 mph, 10-min avg: 1 mph, gust: 4 mph
  • Barometer: 30.16 inFalling 0.02  inHg/hr Falling Slowly
  • Visibility: 10 miles
  • Snow Today: 0.0 in
  •   

Regional Weather Roundup
for Boston / Norton, MA

        
000
ASUS41 KBOX 131210
RWRBOX

REGIONAL WEATHER ROUNDUP
NATIONAL WEATHER SERVICE BOSTON/NORTON MA
700 AM EST WED NOV 13 2019

NOTE:  "FAIR" INDICATES FEW OR NO CLOUDS BELOW 12,000 FEET WITH NO 
SIGNIFICANT WEATHER AND/OR OBSTRUCTIONS TO VISIBILITY.

MAZALL-131300-
EASTERN MASSACHUSETTS
  
CITY           SKY/WX    TMP DP  RH WIND       PRES   REMARKS
BOSTON         FAIR      21   0  39 W20G26    30.13R WCI   6          
6HR MIN TEMP:  21; 6HR MAX TEMP:  25;                                

BEVERLY        FAIR      18   0  45 W15       30.10R WCI   4          
LAWRENCE       FAIR      16  -1  47 W14G21    30.13R WCI   2          
BEDFORD        FAIR      17   1  49 W9        30.13R WCI   6          
BLUE HILL      NOT AVBL                                               
NORWOOD        FAIR      20   0  41 NW10      30.14R WCI   9          
MARSHFIELD     FAIR      21   3  45 NW12G20   30.11R WCI   9          
PLYMOUTH       FAIR      18   2  49 W13G23    30.11R WCI   5          
TAUNTON        FAIR      20  -1  40 NW9G22    30.13R WCI   9          
NEW BEDFORD    FAIR      20   0  41 NW14G24   30.12R WCI   7          
$$

MAZALL-131300-
CAPE COD AND THE ISLANDS
  
CITY           SKY/WX    TMP DP  RH WIND       PRES   REMARKS
FALMOUTH       CLEAR     19   1  45 NW14G24   30.11R WCI   6          
HYANNIS        FAIR      21   2  43 W14G24    30.09R WCI   8          
CHATHAM        FAIR      22   9  57 NW14G24   30.09R WCI   9          
PROVINCETOWN   FAIR      23  12  62 NW30G38   30.09R WCI   5          
NANTUCKET      FAIR      23   5  46 NW21G32   30.11R WCI   8          
MARTHAS VNYRD  FAIR      22   2  42 NW14G30   30.13R WCI   9          
$$
 
MAZALL-131300-
CENTRAL AND WESTERN MASSACHUSETTS
  
CITY           SKY/WX    TMP DP  RH WIND       PRES   REMARKS
WORCESTER      FAIR      13  -3  49 W16G25    30.08R WCI  -3          
6HR MIN TEMP:  13; 6HR MAX TEMP:  17;                                

FITCHBURG      FAIR      16  -1  47 W15G22    30.14R WCI   1          
ORANGE         FAIR      15  -2  46 NW8       30.16R WCI   4          
SPRINGFIELD    CLEAR     16  -2  44 NW14      30.17R WCI   2          
WESTFIELD      FAIR      16   0  49 NW14G30   30.18R WCI   2          
NORTH ADAMS    FAIR     N/A N/A N/A W9        30.19R                  
PITTSFIELD     FAIR      11   0  61 W17G24    30.13R WCI  -6          
$$
 
RIZALL-131300-
RHODE ISLAND
  
CITY           SKY/WX    TMP DP  RH WIND       PRES   REMARKS
PROVIDENCE     FAIR      19   1  45 NW9G20    30.16R WCI   8          
6HR MIN TEMP:  19; 6HR MAX TEMP:  23;                                

NEWPORT        FAIR      21   2  43 NW18G32   30.14R WCI   6          
BLOCK ISLAND   FAIR      21   7  54 NW21G31   30.18R WCI   5          
SMITHFIELD     FAIR      17   0  47 NW15G21   30.12R WCI   2          
WESTERLY       FAIR      21   3  45 NW9G22    30.19R WCI  11          
$$
 
CTZALL-131300-
CONNECTICUT
  
CITY           SKY/WX    TMP DP  RH WIND       PRES   REMARKS
BRADLEY INTL   FAIR      19   3  49 NW13G26   30.20R WCI   6          
6HR MIN TEMP:  19; 6HR MAX TEMP:  23;                                

HARTFORD       FAIR      19   3  49 NW9G22    30.23R WCI   8          
BRIDGEPORT     FAIR      22   9  57 W9        30.24R WCI  12          
DANBURY        FAIR      20   7  57 W5        30.22R WCI  13          
GROTON         FAIR      21   4  47 NW15      30.20R WCI   8          
NEW HAVEN      FAIR      24  11  57 NW7       30.23R WCI  16          
CHESTER        FAIR      19   3  49 NW9G22    30.18R WCI   9          
MERIDEN        FAIR      20   5  52 NW8       30.22R WCI  10          
WILLIMANTIC    FAIR      18   4  54 NW12      30.20R WCI   5          
OXFORD         FAIR      17   7  64 NW10      30.18R WCI   5          
$$

MEZ002-015-021-024-NHZ003-005-008-011-012-014-VTZ005-008-131300-
NORTHERN NEW ENGLAND
  
CITY           SKY/WX    TMP DP  RH WIND       PRES   REMARKS
PORTLAND ME    FAIR      14   4  64 W9        30.04R WCI   2          
6HR MIN TEMP:  14; 6HR MAX TEMP:  17;                                

BANGOR ME      FAIR      13   5  70 W12       29.90R WCI  -1          
CONCORD NH     FAIR      12   1  61 NW7       30.12R WCI   1          
MANCHESTER NH  FAIR      16  -1  47 NW13G21   30.11R WCI   2          
NASHUA NH      FAIR      16   0  49 W8        30.14R WCI   5          
PORTSMOUTH NH  CLEAR     15  -2  46 W17G25    30.08R WCI  -1          
JAFFREY NH     FAIR      12  -4  48 W10G21    30.08R WCI  -1          
KEENE NH       FAIR      12  -1  56 N8        30.15R WCI   0          
BURLINGTON VT  FAIR       9  -1  64 NW8       30.20R WCI  -3          
MT. WASHINGTON NOT AVBL                                               
$$

NYZ052-076-131300-
EASTERN NEW YORK
  
CITY           SKY/WX    TMP DP  RH WIND       PRES   REMARKS
ALBANY         FAIR      14   2  58 W13       30.25R WCI   0          
6HR MIN TEMP:  14; 6HR MAX TEMP:  18;                                

NEW YORK CITY  FAIR      25  11  55 NW17      30.28R WCI  12          
6HR MIN TEMP:  24; 6HR MAX TEMP:  27;                                

$$
 
ANZALL-131300-
MARINE OBSERVATIONS
  
STATION/POSITION TIME  TEMP    WIND        PRES    VSBY  WAVE
                       AIR SEA DIR/SP/G                  HT/PER
                 (UTC) (F)     (DEG/KT/KT) (MB)    (MI)  (FT/S)
BOSTON BUOY      1150   23 52  310/ 31/ 37 1017.7R         5/ 5
BUZZARDS BAY     1100   24     310/ 30/ 35 1020.0R
NANTUCKET SOUND  1140      52                N/A           3/ 3
MASS BAY-STELLWA NOT AVBL
ISLE OF SHOALS   1100   17     290/ 34/ 39 1015.9F
S OF BLOCK IS    1200      58                N/A           8/ 6
$$

......................KEY.........................
  SKY/WX - SKY CONDITION/PRESENT WEATHER
  TMP    - TEMPERATURE IN FAHRENHEIT
  DWPT   - DEWPOINT IN FAHRENHEIT
  RH     - RELATIVE HUMIDITY IN PERCENT
  WIND   - DIRECTION AND SPEED IN MPH
  PRES   - MEAN SEA LEVEL PRESSURE IN INCHES OF HG
  WCI    - WIND CHILL INDEX
  VSB    - VISIBILITY IN MILES
  HX     - HEAT INDEX
  TC     - TEMPERATURE IN CELSIUS
  VRB    - VARIABLE WIND DIRECTION
  N/A    - NOT AVAILABLE
  
      

Other recent Regional Weather Roundups

Fri Nov 15, 3:10am

Fri Nov 15, 3:00am

Fri Nov 15, 2:10am

Fri Nov 15, 2:00am

Fri Nov 15, 1:10am

Fri Nov 15, 1:00am

Fri Nov 15, 12:10am

Fri Nov 15, 12:00am

Thu Nov 14, 11:10pm

Thu Nov 14, 11:00pm

Thu Nov 14, 10:10pm

Thu Nov 14, 10:00pm

Thu Nov 14, 9:10pm

Thu Nov 14, 9:00pm

Thu Nov 14, 8:10pm

Thu Nov 14, 8:00pm

Thu Nov 14, 7:10pm

Thu Nov 14, 7:00pm

Thu Nov 14, 6:10pm

Thu Nov 14, 6:01pm

Thu Nov 14, 5:10pm

Thu Nov 14, 5:00pm

Thu Nov 14, 4:10pm

Thu Nov 14, 4:00pm

Thu Nov 14, 3:10pm

Thu Nov 14, 3:00pm

Thu Nov 14, 2:10pm

Thu Nov 14, 2:00pm

Thu Nov 14, 1:10pm

Thu Nov 14, 1:00pm

Thu Nov 14, 12:10pm

Thu Nov 14, 12:01pm

Thu Nov 14, 11:10am

Thu Nov 14, 11:00am

Thu Nov 14, 10:10am

Thu Nov 14, 10:01am

Thu Nov 14, 9:10am

Thu Nov 14, 9:00am

Thu Nov 14, 8:10am

Thu Nov 14, 8:00am

Thu Nov 14, 7:10am

Thu Nov 14, 7:00am

Thu Nov 14, 6:10am

Thu Nov 14, 6:00am

Thu Nov 14, 5:10am

Thu Nov 14, 5:00am

Thu Nov 14, 4:10am

Thu Nov 14, 4:00am

Thu Nov 14, 3:10am

Thu Nov 14, 3:00am

Thu Nov 14, 2:10am

Thu Nov 14, 2:00am

Thu Nov 14, 1:10am

Thu Nov 14, 1:00am

Thu Nov 14, 12:10am

Thu Nov 14, 12:00am

Wed Nov 13, 11:10pm

Wed Nov 13, 11:00pm

Wed Nov 13, 10:10pm

Wed Nov 13, 10:00pm

Wed Nov 13, 9:10pm

Wed Nov 13, 9:00pm

Wed Nov 13, 8:10pm

Wed Nov 13, 8:00pm

Wed Nov 13, 7:10pm

Wed Nov 13, 7:00pm

Wed Nov 13, 6:10pm

Wed Nov 13, 6:01pm

Wed Nov 13, 5:10pm

Wed Nov 13, 5:00pm

Wed Nov 13, 4:10pm

Wed Nov 13, 4:00pm

Wed Nov 13, 3:10pm

Wed Nov 13, 3:01pm

Wed Nov 13, 2:10pm

Wed Nov 13, 2:01pm

Wed Nov 13, 1:10pm

Wed Nov 13, 1:00pm

Wed Nov 13, 12:10pm

Wed Nov 13, 12:01pm

Wed Nov 13, 11:10am

Wed Nov 13, 11:00am

Wed Nov 13, 10:10am

Wed Nov 13, 10:00am

Wed Nov 13, 9:10am

Wed Nov 13, 9:00am

Wed Nov 13, 8:10am

Wed Nov 13, 8:00am

Wed Nov 13, 7:00am

Wed Nov 13, 6:10am

Wed Nov 13, 6:00am

Wed Nov 13, 5:10am

Wed Nov 13, 5:00am

Wed Nov 13, 4:10am

Wed Nov 13, 4:00am

Wed Nov 13, 3:10am

Wed Nov 13, 3:00am

Wed Nov 13, 2:10am

Wed Nov 13, 2:00am

Wed Nov 13, 1:10am

Wed Nov 13, 1:00am

Wed Nov 13, 12:10am

Wed Nov 13, 12:00am

Tue Nov 12, 11:10pm

Tue Nov 12, 11:00pm

Tue Nov 12, 10:10pm

Tue Nov 12, 10:00pm

Tue Nov 12, 9:10pm

Tue Nov 12, 9:00pm

Tue Nov 12, 8:10pm

Tue Nov 12, 8:00pm

Tue Nov 12, 7:10pm

Tue Nov 12, 7:01pm

Tue Nov 12, 6:10pm

Tue Nov 12, 6:01pm

Tue Nov 12, 5:10pm

Tue Nov 12, 5:01pm

Tue Nov 12, 4:10pm

Tue Nov 12, 4:01pm

Tue Nov 12, 3:10pm

Tue Nov 12, 3:00pm

Tue Nov 12, 2:10pm

Tue Nov 12, 2:00pm

Tue Nov 12, 1:10pm

Tue Nov 12, 1:00pm

Tue Nov 12, 12:10pm

Tue Nov 12, 12:00pm

Tue Nov 12, 11:10am

Tue Nov 12, 11:00am

Tue Nov 12, 10:10am

Tue Nov 12, 10:01am

Tue Nov 12, 9:10am

Tue Nov 12, 9:00am

Tue Nov 12, 8:10am

Tue Nov 12, 8:00am

Tue Nov 12, 7:10am

Tue Nov 12, 7:00am

Tue Nov 12, 6:10am

Tue Nov 12, 6:00am

Tue Nov 12, 5:10am

Tue Nov 12, 5:01am

Tue Nov 12, 4:10am

Tue Nov 12, 4:00am

Meta data:

ID: e7de5ad2-e3b0-4418-a164-691999642c9f
Link: https://api.weather.gov/products/e7de5ad2-e3b0-4418-a164-691999642c9f